Location: G�migny
(47.9646°N, 1.6950°E)
Time: 08:06:43
(UTC+00:00)

Daily predictions for brighter satellites

Satellite Brightness Start Highest point End
(mag) Time Altitude Azimuth Time Altitude Azimuth Time Altitude Azimuth
SMAP 3.2 17:14:14 10° SSE 17:18:53 86° WSW 17:23:35 10° NNW
Unknown 4.4 17:15:29 10° WNW 17:19:26 40° N 17:23:23 10° ENE
CORIOLIS 4.2 17:14:39 10° SSE 17:20:00 82° ENE 17:25:25 10° NNW
Cosmos 2058 Rocket 3.1 17:15:59 10° S 17:20:17 62° E 17:24:36 10° NNE
Unknown 4.4 17:17:09 10° WNW 17:21:06 40° N 17:25:01 10° ENE
Abrixas rocket 2.1 17:18:13 10° WSW 17:21:16 70° SSE 17:24:20 10° E
Cosmos 1300 4.4 17:19:56 10° ESE 17:21:58 14° E 17:24:01 10° NE
Unknown 4.4 17:18:50 10° WNW 17:22:47 40° N 17:26:43 10° ENE
Unknown 3.2 17:19:30 10° WNW 17:23:02 80° NNE 17:26:33 10° ESE
Unknown 4.4 17:20:33 10° WNW 17:24:28 40° N 17:28:25 10° ENE
COBE Rocket 4.3 17:20:13 10° NNE 17:25:09 44° E 17:29:55 10° SSE
Okean O Rocket 4.4 17:22:04 10° SSW 17:25:44 24° W 17:29:23 10° NW
NOAA 12 4.1 17:20:30 10° SSE 17:25:45 68° ENE 17:31:03 10° N
Envisat 3.1 17:21:06 10° SE 17:26:01 53° ENE 17:30:58 10° N
Unknown 4.4 17:23:53 10° WNW 17:27:49 40° N 17:31:45 10° ENE
Cosmos 1328 3.7 17:25:06 10° N 17:29:05 83° E 17:33:01 10° S
Unknown 4.4 17:25:36 10° WNW 17:29:33 40° N 17:33:29 10° ENE
Unknown 4.4 17:27:11 10° WNW 17:31:07 40° N 17:35:03 10° ENE
Cosmos 1356 3.4 17:28:08 10° S 17:31:34 86° ESE 17:35:02 10° NNE
COSMO-SKYMED 1 3.2 17:28:09 10° NNE 17:32:08 34° E 17:36:06 10° SSE
Unknown 4.4 17:28:48 10° WNW 17:32:44 40° N 17:36:35 10° ENE
H-2A R/B 3.1 17:28:56 10° S 17:32:51 74° WSW 17:36:48 10° NNW
Unknown 4.4 17:30:34 10° WNW 17:34:29 40° N 17:38:16 11° ENE
Cosmos 2082 Rocket 2.3 17:29:28 10° NNW 17:35:07 57° ENE 17:40:42 10° SE
Unknown 4.4 17:32:02 10° WNW 17:35:58 40° N 17:39:41 11° ENE
USA 238 DEB 3.9 17:31:06 10° SSW 17:37:30 51° ESE 17:44:09 10° NE
USA 238 3.9 17:31:13 10° SSW 17:37:37 51° ESE 17:44:14 10° NE
Unknown 4.4 17:35:20 10° WNW 17:39:16 40° N 17:42:50 12° ENE
Cosmos 1844 Rocket 4.2 17:34:19 10° WSW 17:39:31 36° NW 17:44:43 10° NNE
Cosmos 2058 4.1 17:36:13 10° NNE 17:39:35 22° ENE 17:42:55 10° ESE
Unknown 4.4 17:37:01 10° WNW 17:40:58 40° N 17:44:27 13° ENE
H-2A R/B 4.0 17:40:44 10° ENE 17:42:10 11° NE 17:43:38 10° NE
Unknown 4.4 17:38:54 10° WNW 17:42:50 40° N 17:46:14 13° ENE
Unknown 4.3 17:39:00 10° WNW 17:42:52 41° N 17:46:07 14° ENE
Unknown 3.5 17:39:30 10° WNW 17:43:12 57° NNE 17:46:21 14° E
Unknown 3.4 17:40:35 10° WNW 17:44:05 70° SSW 17:47:35 10° SE
Unknown 4.4 17:40:25 10° WNW 17:44:21 40° N 17:47:41 13° ENE
Cosmos 1339 Rocket 4.5 17:39:29 10° S 17:45:28 62° E 17:51:35 10° NNE
Unknown 4.4 17:42:03 10° WNW 17:46:00 40° N 17:49:16 14° ENE
Cosmos 1076 Rocket 4.1 17:42:04 10° N 17:46:05 34° ENE 17:50:03 10° SE
Unknown 4.4 17:45:24 10° WNW 17:49:20 40° N 17:52:27 15° ENE
Unknown 4.4 17:47:03 10° WNW 17:51:00 41° N 17:54:02 15° ENE
Okean-O 3.2 17:46:56 10° S 17:51:19 62° WSW 17:55:45 10° NNW
Cosmos 1726 2.7 17:47:49 10° SSW 17:51:24 58° W 17:55:02 10° N
Cosmos 1939 Rocket 3.9 17:48:08 10° ESE 17:51:29 26° ENE 17:54:52 10° N
Unknown 4.4 17:48:43 10° WNW 17:52:39 41° N 17:55:37 16° ENE
Unknown 4.4 17:50:26 10° WNW 17:54:22 41° N 17:57:16 17° ENE
Unknown 4.3 17:51:39 10° WNW 17:55:33 41° N 17:58:19 17° ENE
ATLAS 5 CENTAUR R/B 3.8 17:52:42 10° WNW 17:56:11 20° NNW 18:00:00 10° NNE
Unknown 4.4 17:53:46 10° WNW 17:57:43 41° N 18:00:27 18° ENE
Cosmos 1703 4.2 17:54:30 10° NNW 17:58:19 51° W 18:02:06 10° S
Unknown 4.3 17:54:39 10° WNW 17:58:37 41° N 18:01:18 18° ENE
NOSS 3-2 (A) 3.5 17:53:42 10° SSW 17:59:19 57° ESE 18:05:42 10° NE
Unknown 4.3 17:55:30 10° WNW 17:59:27 42° N 18:02:06 19° ENE
Cosmos 1605 Rocket 4.0 17:53:58 10° N 18:00:11 87° W 18:06:17 10° S
Unknown 4.3 17:57:20 10° WNW 18:01:19 42° N 18:03:53 19° ENE
Cosmos 2151 4.3 17:58:24 10° NNE 18:01:39 20° ENE 18:02:29 19° E
Unknown 4.3 18:00:28 10° WNW 18:04:26 42° N 18:06:52 20° ENE
Unknown 4.3 18:03:48 10° WNW 18:07:46 42° N 18:10:03 22° ENE
Ariane Rocket 3.5 18:04:05 10° SE 18:08:46 38° ENE 18:13:29 10° N
Cosmos 1812 Rocket 3.6 18:04:45 10° S 18:09:08 61° E 18:13:33 10° NNE
Unknown 4.3 18:05:25 10° WNW 18:09:23 42° N 18:11:36 22° ENE
Unknown 4.3 18:07:08 10° WNW 18:11:06 43° N 18:13:14 23° ENE
Cosmos 1908 4.0 18:07:26 10° SSW 18:11:16 54° WNW 18:15:06 10° N
ADEOS Rocket 4.5 18:06:55 10° NE 18:12:05 20° E 18:13:05 19° E
Unknown 4.3 18:08:44 10° WNW 18:12:42 43° N 18:14:46 24° ENE
ASTEX 1 3.9 18:10:37 10° N 18:15:33 65° W 18:20:29 10° SSW
Cosmos 1727 Rocket 3.9 18:09:32 10° S 18:15:40 73° E 18:21:51 10° NNE
Cosmos 2173 Rocket 4.1 18:10:10 10° N 18:16:15 51° ENE 18:22:12 10° SSE
Cosmos 2278 Rocket 2.6 18:10:54 10° SW 18:16:32 65° WNW 18:22:13 10° NNE
YAOGAN 6 2.8 18:13:22 10° S 18:16:59 72° WSW 18:20:36 10° NNW
Unknown 4.2 18:15:28 10° WNW 18:19:27 44° N 18:21:13 27° ENE
Cosmos 990 Rocket 4.1 18:14:40 10° NNW 18:19:46 51° ENE 18:23:48 16° SE
Lacrosse 5 2.7 18:15:15 10° WNW 18:20:07 48° SW 18:24:58 10° SSE
YAOGAN 1 2.5 18:15:49 10° SSE 18:20:09 89° WSW 18:24:31 10° NNW
SKYMED 2 3.7 18:15:58 10° N 18:20:20 79° WNW 18:24:40 10° SSW
Unknown 4.2 18:17:08 10° WNW 18:21:08 44° N 18:22:50 28° ENE
CSL-04 Rocket 3.7 18:16:37 10° SSE 18:22:09 87° WSW 18:27:39 10° NNW
Cosmos 1937 Rocket 3.8 18:17:42 10° NNW 18:22:36 42° ENE 18:25:12 24° ESE
Unknown 4.2 18:18:48 10° WNW 18:22:48 45° N 18:24:25 29° ENE
Cosmos 2297 3.8 18:17:19 10° S 18:22:48 51° ESE 18:28:22 10° NE
Unknown 4.2 18:20:26 10° WNW 18:24:26 45° N 18:25:59 30° ENE
Unknown 4.2 18:22:07 10° WNW 18:26:08 46° N 18:27:36 31° ENE
CZ-4 R/B 2.1 18:22:11 10° S 18:26:20 59° W 18:30:32 10° NNW
NOSS 3-2 (C) 3.5 18:20:49 10° SSW 18:26:27 57° ESE 18:31:43 15° NE
BREEZE-M DEB (TANK) 3.3 18:16:14 10° SW 18:26:38 55° SSE 18:28:17 32° E
Unknown 3.3 18:22:50 10° WNW 18:26:41 73° NNE 18:27:57 39° E
ARGOS 4.4 18:27:50 22° ENE 18:27:53 22° ENE 18:31:59 10° N
Unknown 4.1 18:25:26 10° WNW 18:29:27 46° NNE 18:30:47 34° ENE
Cosmos 1802 Rocket 4.1 18:24:30 10° N 18:30:50 55° ENE 18:37:04 10° SSE
Starlink (trailer) 4.1 18:27:06 10° WNW 18:31:08 47° NNE 18:32:23 35° ENE
Unknown 4.1 18:28:48 10° WNW 18:32:49 47° NNE 18:34:00 36° ENE
Unknown 4.1 18:30:30 10° WNW 18:34:32 48° NNE 18:35:39 37° ENE
USA 116 3.4 18:32:13 10° NNE 18:35:30 81° WNW 18:39:05 10° SSW
ATLAS CENTAUR R/B 3.2 18:32:31 10° NNW 18:35:44 18° NNE 18:36:02 18° NNE
Cosmos 1000 Rocket 4.5 18:31:41 10° S 18:37:44 59° E 18:43:53 10° NNE
Cosmos 1892 3.4 18:34:48 10° N 18:37:36 35° NE 18:37:36 35° NE
Unknown 4.0 18:35:28 10° WNW 18:39:31 50° NNE 18:40:24 41° NE
Cosmos-2242 3.2 18:36:11 10° SSE 18:40:20 47° E 18:44:30 10° NNE
Cosmos 1725 Rocket 4.3 18:34:46 10° N 18:40:46 44° ENE 18:43:50 26° SE
Unknown 4.0 18:37:06 10° WNW 18:41:09 50° NNE 18:41:58 43° NE
Unknown 4.0 18:38:46 10° WNW 18:42:49 50° NNE 18:43:34 44° NE
Cosmos 44 3.1 18:38:04 10° SSW 18:42:59 77° SE 18:45:15 31° NE
Cosmos 1833 Rocket 4.4 18:38:34 10° NW 18:43:33 33° WSW 18:48:30 10° SSW
Unknown 4.0 18:40:23 10° WNW 18:44:28 51° NNE 18:45:10 45° NE
NOAA 11 4.1 18:39:10 10° SSE 18:44:37 89° E 18:50:05 10° NNW
Cosmos 1763 Rocket 3.7 18:40:16 10° S 18:45:20 47° ESE 18:47:27 31° NE
Unknown 3.9 18:42:05 10° WNW 18:46:09 52° NNE 18:46:45 47° NE
SL-27 R/B 3.9 18:43:26 10° N 18:45:03 24° N 18:45:03 24° N
Cosmos 2100 Rocket 3.9 18:40:54 10° N 18:47:07 89° ENE 18:53:16 10° S
Unknown 3.9 18:43:51 10° WNW 18:47:56 53° NNE 18:48:27 49° NE
ATLAS 3B R/B 2.6 18:42:22 10° SSW 18:48:55 57° ESE 18:52:28 27° NE
Unknown 3.8 18:47:07 10° WNW 18:51:11 54° NNE 18:51:34 51° NE
Unknown 3.8 18:47:10 10° WNW 18:51:15 54° NNE 18:51:38 52° NE
BREEZE-M DEB (TANK) 2.6 18:48:00 10° WSW 18:51:06 54° SW 18:51:06 54° SW
Unknown 3.8 18:48:46 10° WNW 18:52:51 54° NNE 18:53:09 53° NE
CENTAUR R/B 2.5 18:48:36 10° SSW 18:54:30 64° ESE 18:58:23 26° NE
SJ 16-02 1.2 18:51:27 10° NNW 18:55:51 74° ENE 18:56:27 62° SE
Unknown 3.3 18:52:03 10° WNW 18:55:57 90° SSW 18:56:04 85° ESE
Unknown 3.8 18:52:00 10° WNW 18:56:05 55° NNE 18:56:16 54° NNE
Abrixas rocket 3.0 18:54:06 10° W 18:56:26 48° WNW 18:56:26 48° WNW
Cosmos 1300 3.6 18:53:30 10° SSW 18:57:12 49° WNW 19:00:57 10° N
Unknown 3.8 18:55:25 10° WNW 18:59:31 57° NNE 18:59:33 57° NNE
Unknown 3.8 18:57:04 10° WNW 19:01:07 58° NNE 19:01:07 58° NNE
Cosmos 2016 Rocket 3.9 18:55:21 10° N 19:01:40 76° E 19:07:42 12° SSE
Unknown 3.8 18:58:44 10° WNW 19:02:44 59° N 19:02:44 59° N
Unknown 3.8 19:00:26 10° WNW 19:04:22 59° N 19:04:22 59° N
SPOT 3 Rocket 3.9 19:05:58 47° NE 19:05:58 47° NE 19:10:32 10° N
Unknown 3.9 19:03:45 10° WNW 19:07:32 59° N 19:07:32 59° N
Cosmos 2369 Rocket 4.4 19:03:55 10° S 19:04:07 11° S 19:04:07 11° S
Unknown 3.9 19:05:28 10° WNW 19:09:12 59° NNW 19:09:12 59° NNW
Unknown 3.9 19:07:03 10° WNW 19:10:42 58° NNW 19:10:42 58° NNW
SL-08 R/B 4.3 19:05:03 10° N 19:11:10 75° E 19:13:56 34° SSE
Unknown 4.0 19:08:39 10° WNW 19:12:14 57° NNW 19:12:14 57° NNW
Unknown 4.0 19:10:23 10° WNW 19:13:55 57° NNW 19:13:55 57° NNW
Unknown 4.1 19:11:53 10° WNW 19:15:20 54° NNW 19:15:20 54° NNW
Cosmos 1898 Rocket 4.1 19:11:06 10° NNW 19:16:16 55° WSW 19:19:54 19° S
Cosmos 2058 4.4 19:12:43 10° NNW 19:16:37 37° W 19:20:29 10° SSW
Cosmos 2082 Rocket 4.2 19:14:12 10° NW 19:18:50 26° WSW 19:23:25 10° SSW
Unknown 4.2 19:15:09 10° WNW 19:18:29 52° NW 19:18:29 52° NW
MOS 1 4.2 19:17:41 33° S 19:20:20 83° WSW 19:26:02 10° NNW
H-2A R/B 2.4 19:21:19 51° NNE 19:21:19 51° NNE 19:25:48 10° N
Unknown 4.3 19:16:51 10° WNW 19:20:06 50° NW 19:20:06 50° NW
Unknown 4.3 19:18:19 10° WNW 19:21:25 51° WNW 19:21:25 51° WNW
Unknown 4.3 19:18:41 10° WNW 19:21:54 50° NW 19:21:54 50° NW
Unknown 4.4 19:20:13 10° WNW 19:23:21 48° NW 19:23:21 48° NW
Cosmos 1766 Rocket 3.8 19:20:05 10° NNW 19:24:13 65° WNW 19:24:13 65° WNW
Cosmos 1943 Rocket 3.9 19:19:11 10° S 19:20:37 18° S 19:20:37 18° S
Unknown 4.5 19:21:51 10° WNW 19:24:55 46° NW 19:24:55 46° NW
USA 238 4.5 19:22:10 10° WSW 19:28:40 48° NW 19:33:39 18° NNE
Cosmos 2151 4.1 19:35:04 10° NNW 19:39:06 43° W 19:39:06 43° W
ATLAS 5 CENTAUR R/B 4.2 19:39:54 10° NNW 19:42:50 15° N 19:43:20 15° N
Resurs 01 Rocket 4.2 19:53:25 13° N 19:53:25 13° N 19:53:51 10° N
ADEOS Rocket 3.3 19:51:00 10° NNE 19:58:41 88° ESE 19:59:59 65° S
Cosmos 1238 Rocket 4.3 19:53:06 10° N 19:58:17 57° N 19:58:17 57° N
ARGOS 4.1 20:09:22 43° NW 20:09:22 43° NW 20:13:06 10° NNW
ATLAS CENTAUR R/B 4.0 20:11:00 10° NW 20:12:14 18° NW 20:12:14 18° NW
SJ 16-02 4.3 20:31:56 10° WNW 20:33:29 12° W 20:33:29 12° W
ATLAS 3B R/B 3.6 20:33:32 10° WSW 20:39:47 42° NW 20:39:47 42° NW
CENTAUR R/B 3.7 20:39:41 10° W 20:45:37 40° NNW 20:45:37 40° NNW
H-2A R/B 4.4 21:01:58 20° WNW 21:01:58 20° WNW 21:04:32 10° NW
